Thunder radar more information blitzortung!


Löydät sääaseman tiedot myös:

European Weather Network

Finland Weather Exchange

Weather Underground

AWEKAS



Weather Underground säähistoriasivu

Päivittäin yhteenveto Heinäkuu 21, 2017 Yksiköt:  Englantilaiset    Metriset   Molemmat
« Edellinen Päivä
Seuraava Päivä »
Päivittäin Viikoittain Kuukausittain Vuosittain Mukautettu
  Korkea: Matala: Keskiarvo:
Lämpötila: TemperatureC °F 9.6 °F 13.7 °F
Kastepiste: DewpointC °F 8.1 °F 11.1 °F
Kosteus: Humidity % 61 % 85 %
Tuulen nopeus: WindSpeedKMH mph 0.0 mph 0.6 mph
Tuulenpuuska: WindSpeedGustKMH mph - -
Tuuli:- - NW
Ilmanpaine: PressurehPa in 1014.4 in -
Sade: 2.8 in    
Historical Graphs
 
 
Taulukkotiedot Heinäkuu 21, 2017
Aika Lämpötila Kastepiste Ilmanpaine Tuuli Tuulen nopeus Tuulenpuuska Kosteus Sademäärä (tunneittain)
TemperatureC °F DewpointC °F PressurehPa in Calm     Humidity % HourlyPrecipMM in
00:00 9.6 °F 8.1 °F 1014.4 in NW 1.6 mph 6.4 mph 90 % 0.0 in
00:05 9.6 °F 8.1 °F 1014.4 in NW 1.6 mph 6.4 mph 90 % 0.0 in
00:10 9.7 °F 8.1 °F 1014.4 in NW 3.2 mph 8.0 mph 90 % 0.0 in
00:15 9.8 °F 8.2 °F 1014.4 in NW 1.6 mph 8.0 mph 90 % 0.0 in
00:20 9.8 °F 8.3 °F 1014.4 in NW 1.6 mph 8.0 mph 90 % 0.0 in
00:25 9.9 °F 8.4 °F 1014.4 in Calm   8.0 mph 90 % 0.0 in
00:30 9.9 °F 8.4 °F 1014.4 in NW 1.6 mph 8.0 mph 90 % 0.0 in
00:35 10.0 °F 8.4 °F 1014.4 in Calm   8.0 mph 90 % 0.0 in
00:40 10.0 °F 8.4 °F 1014.4 in NW 1.6 mph 8.0 mph 90 % 0.0 in
00:45 10.1 °F 8.5 °F 1014.4 in NW 3.2 mph 8.0 mph 90 % 0.0 in
00:50 10.1 °F 8.6 °F 1014.4 in NW 4.8 mph 12.9 mph 90 % 0.0 in
00:55 10.2 °F 8.4 °F 1014.4 in NW 3.2 mph 12.9 mph 89 % 0.0 in
01:00 10.2 °F 8.5 °F 1014.4 in NW 4.8 mph 12.9 mph 89 % 0.0 in
01:05 10.3 °F 8.6 °F 1014.4 in NW 1.6 mph 9.7 mph 89 % 0.0 in
01:10 10.4 °F 8.7 °F 1014.4 in NW 1.6 mph 8.0 mph 89 % 0.0 in
01:15 10.4 °F 8.7 °F 1014.4 in NW 1.6 mph 8.0 mph 89 % 0.0 in
01:20 10.5 °F 8.8 °F 1014.4 in Calm   6.4 mph 89 % 0.0 in
01:25 10.5 °F 8.8 °F 1014.4 in Calm   6.4 mph 89 % 0.0 in
01:30 10.5 °F 8.8 °F 1014.4 in Calm   6.4 mph 89 % 0.0 in
01:35 10.6 °F 8.8 °F 1014.4 in Calm   8.0 mph 89 % 0.0 in
01:40 10.6 °F 8.7 °F 1014.8 in Calm   8.0 mph 88 % 0.0 in
01:45 10.6 °F 8.7 °F 1014.4 in NW 1.6 mph 6.4 mph 88 % 0.0 in
01:50 10.6 °F 8.7 °F 1014.8 in NW 1.6 mph 6.4 mph 88 % 0.0 in
01:55 10.7 °F 8.8 °F 1014.8 in Calm   6.4 mph 88 % 0.0 in
02:00 10.7 °F 8.8 °F 1014.8 in Calm   4.8 mph 88 % 0.0 in
02:05 10.7 °F 8.8 °F 1014.8 in Calm   4.8 mph 88 % 0.0 in
02:10 10.7 °F 8.8 °F 1014.8 in Calm     88 % 0.0 in
02:15 10.6 °F 8.9 °F 1014.8 in Calm     89 % 0.0 in
02:20 10.6 °F 8.9 °F 1014.8 in Calm     89 % 0.0 in
02:25 10.6 °F 8.9 °F 1014.8 in Calm   3.2 mph 89 % 0.0 in
02:30 10.6 °F 8.9 °F 1014.8 in Calm   4.8 mph 89 % 0.0 in
02:35 10.7 °F 8.9 °F 1014.8 in Calm   4.8 mph 89 % 0.0 in
02:40 10.7 °F 8.9 °F 1014.8 in Calm   3.2 mph 89 % 0.0 in
02:45 10.7 °F 8.9 °F 1014.8 in NW 1.6 mph 4.8 mph 89 % 0.0 in
02:50 10.7 °F 8.9 °F 1014.8 in Calm   4.8 mph 89 % 0.0 in
02:55 10.7 °F 9.1 °F 1014.8 in Calm   3.2 mph 90 % 0.0 in
03:00 10.7 °F 9.1 °F 1014.8 in Calm   3.2 mph 90 % 0.0 in
03:05 10.7 °F 9.1 °F 1014.8 in Calm   3.2 mph 90 % 0.0 in
03:10 10.7 °F 9.1 °F 1014.8 in Calm     90 % 0.0 in
03:15 10.6 °F 9.1 °F 1014.8 in Calm     90 % 0.0 in
03:20 10.6 °F 9.2 °F 1014.8 in Calm     91 % 0.0 in
03:25 10.6 °F 9.2 °F 1014.8 in Calm     91 % 0.3 in
03:30 10.6 °F 9.3 °F 1014.8 in Calm     92 % 0.3 in
03:35 10.5 °F 9.3 °F 1014.8 in Calm     92 % 0.3 in
03:40 10.4 °F 9.2 °F 1014.8 in Calm     92 % 0.3 in
03:45 10.4 °F 9.2 °F 1014.8 in Calm   1.6 mph 92 % 0.3 in
03:50 10.3 °F 9.3 °F 1014.8 in Calm   1.6 mph 93 % 0.3 in
03:55 10.3 °F 9.3 °F 1014.8 in Calm   3.2 mph 93 % 0.3 in
04:00 10.3 °F 9.2 °F 1014.8 in Calm   3.2 mph 93 % 0.3 in
04:05 10.3 °F 9.2 °F 1014.8 in Calm     93 % 0.3 in
04:10 10.3 °F 9.2 °F 1014.8 in Calm     93 % 0.3 in
04:15 10.3 °F 9.2 °F 1014.8 in Calm   3.2 mph 93 % 0.3 in
04:20 10.3 °F 9.2 °F 1014.8 in Calm   3.2 mph 93 % 0.3 in
04:30 10.3 °F 9.3 °F 1014.8 in Calm   6.4 mph 93 % 0.0 in
04:35 10.3 °F 9.4 °F 1014.8 in Calm   6.4 mph 94 % 0.0 in
04:45 10.4 °F 9.4 °F 1014.8 in Calm   4.8 mph 94 % 0.3 in
04:50 10.4 °F 9.6 °F 1014.8 in NW 1.6 mph 6.4 mph 95 % 0.3 in
04:55 10.4 °F 9.7 °F 1014.8 in Calm   6.4 mph 95 % 0.3 in
05:00 10.4 °F 9.7 °F 1014.8 in Calm   4.8 mph 95 % 0.5 in
05:05 10.4 °F 9.7 °F 1014.8 in Calm   1.6 mph 95 % 0.5 in
05:10 10.4 °F 9.6 °F 1014.8 in Calm   1.6 mph 95 % 0.5 in
05:15 10.4 °F 9.6 °F 1014.4 in Calm   3.2 mph 95 % 0.5 in
05:20 10.3 °F 9.6 °F 1014.4 in Calm   3.2 mph 95 % 0.5 in
05:25 10.3 °F 9.6 °F 1014.4 in Calm   1.6 mph 95 % 0.5 in
05:30 10.3 °F 9.6 °F 1014.4 in Calm   4.8 mph 95 % 0.5 in
05:35 10.3 °F 9.5 °F 1014.4 in WNW 1.6 mph 6.4 mph 95 % 0.5 in
05:40 10.3 °F 9.5 °F 1014.4 in Calm   6.4 mph 95 % 0.5 in
05:45 10.3 °F 9.5 °F 1014.4 in Calm   4.8 mph 95 % 0.3 in
05:50 10.3 °F 9.6 °F 1014.4 in NW 1.6 mph 6.4 mph 95 % 0.3 in
05:55 10.3 °F 9.6 °F 1014.4 in NW 1.6 mph 9.7 mph 95 % 0.5 in
06:00 10.4 °F 9.7 °F 1014.4 in NW 1.6 mph 9.7 mph 95 % 0.3 in
06:05 10.4 °F 9.7 °F 1014.4 in Calm   9.7 mph 95 % 0.3 in
06:10 10.4 °F 9.8 °F 1014.4 in Calm   4.8 mph 96 % 0.3 in
06:15 10.5 °F 9.9 °F 1014.8 in Calm   4.8 mph 96 % 0.3 in
06:20 10.5 °F 9.9 °F 1014.8 in Calm     96 % 0.5 in
06:25 10.5 °F 9.9 °F 1014.8 in Calm     96 % 0.8 in
06:30 10.5 °F 9.9 °F 1014.8 in Calm   3.2 mph 96 % 1.3 in
06:35 10.5 °F 9.9 °F 1014.8 in Calm   3.2 mph 96 % 1.5 in
06:40 10.6 °F 9.9 °F 1014.8 in Calm     96 % 1.8 in
06:45 10.6 °F 9.9 °F 1014.8 in Calm     96 % 1.8 in
06:50 10.6 °F 10.0 °F 1014.8 in Calm   4.8 mph 96 % 2.0 in
06:55 10.6 °F 10.0 °F 1014.8 in Calm   4.8 mph 96 % 1.8 in
07:00 10.7 °F 10.1 °F 1014.8 in Calm   6.4 mph 96 % 2.0 in
07:05 10.7 °F 10.1 °F 1014.8 in Calm   6.4 mph 96 % 2.0 in
07:10 10.8 °F 10.2 °F 1014.8 in Calm   3.2 mph 96 % 2.0 in
07:15 10.8 °F 10.2 °F 1015.1 in Calm   4.8 mph 96 % 2.0 in
07:20 10.9 °F 10.3 °F 1015.1 in Calm   6.4 mph 96 % 1.8 in
07:25 10.9 °F 10.3 °F 1015.1 in Calm   6.4 mph 96 % 1.5 in
07:30 11.0 °F 10.6 °F 1015.1 in NW 1.6 mph 6.4 mph 97 % 1.0 in
07:35 11.0 °F 10.6 °F 1014.8 in NW 3.2 mph 6.4 mph 97 % 0.8 in
07:40 11.0 °F 10.4 °F 1014.8 in NW 3.2 mph 8.0 mph 96 % 0.5 in
07:45 11.1 °F 10.4 °F 1015.1 in NW 3.2 mph 8.0 mph 96 % 0.5 in
07:50 11.1 °F 10.4 °F 1014.8 in NW 1.6 mph 8.0 mph 96 % 0.3 in
07:55 11.1 °F 10.7 °F 1014.8 in NW 1.6 mph 6.4 mph 97 % 0.3 in
08:00 11.2 °F 10.7 °F 1014.8 in NW 1.6 mph 6.4 mph 97 % 0.0 in
08:05 11.2 °F 10.6 °F 1015.1 in Calm   4.8 mph 96 % 0.0 in
08:10 11.3 °F 10.8 °F 1015.1 in Calm   1.6 mph 97 % 0.0 in
08:15 11.3 °F 10.7 °F 1015.1 in Calm   6.4 mph 96 % 0.0 in
08:20 11.3 °F 10.9 °F 1015.1 in Calm   6.4 mph 97 % 0.0 in
08:25 11.4 °F 10.9 °F 1015.1 in Calm   4.8 mph 97 % 0.0 in
08:30 11.5 °F 11.1 °F 1015.1 in Calm   4.8 mph 97 % 0.0 in
08:35 11.6 °F 11.1 °F 1015.1 in Calm   4.8 mph 97 % 0.0 in
08:40 11.6 °F 11.1 °F 1015.1 in Calm   4.8 mph 97 % 0.0 in
08:45 11.7 °F 11.2 °F 1015.1 in Calm     97 % 0.0 in
08:50 11.7 °F 11.3 °F 1015.1 in Calm   1.6 mph 97 % 0.0 in
08:55 11.8 °F 11.3 °F 1015.1 in Calm   1.6 mph 97 % 0.0 in
09:00 11.8 °F 11.3 °F 1015.5 in Calm   6.4 mph 97 % 0.0 in
09:05 11.8 °F 11.4 °F 1015.5 in Calm   6.4 mph 97 % 0.0 in
09:10 11.8 °F 11.4 °F 1015.5 in Calm     97 % 0.0 in
09:15 11.9 °F 11.5 °F 1015.5 in Calm     97 % 0.0 in
09:20 12.0 °F 11.6 °F 1015.5 in Calm   1.6 mph 97 % 0.0 in
09:25 12.1 °F 11.6 °F 1015.5 in Calm   1.6 mph 97 % 0.0 in
09:30 12.1 °F 11.4 °F 1015.5 in Calm     96 % 0.0 in
09:35 12.1 °F 11.4 °F 1015.5 in Calm   3.2 mph 96 % 0.0 in
09:40 12.2 °F 11.6 °F 1015.5 in Calm   4.8 mph 96 % 0.0 in
09:45 12.3 °F 11.7 °F 1015.5 in Calm   4.8 mph 96 % 0.0 in
09:50 12.6 °F 11.9 °F 1015.5 in North 1.6 mph 6.4 mph 96 % 0.0 in
09:55 12.8 °F 12.2 °F 1015.5 in Calm   6.4 mph 96 % 0.0 in
10:00 13.3 °F 12.6 °F 1015.5 in Calm   1.6 mph 95 % 0.0 in
10:05 13.7 °F 12.6 °F 1015.5 in Calm   3.2 mph 93 % 0.0 in
10:10 13.6 °F 12.2 °F 1015.5 in Calm   4.8 mph 91 % 0.0 in
10:15 13.4 °F 12.1 °F 1015.5 in Calm   4.8 mph 92 % 0.0 in
10:20 13.2 °F 11.9 °F 1015.5 in Calm     92 % 0.0 in
10:25 13.1 °F 11.9 °F 1015.5 in Calm     93 % 0.0 in
10:30 13.1 °F 12.2 °F 1015.8 in Calm     94 % 0.0 in
10:35 13.1 °F 12.2 °F 1015.8 in Calm   1.6 mph 94 % 0.0 in
10:40 13.2 °F 12.2 °F 1015.8 in Calm   1.6 mph 94 % 0.0 in
10:45 13.2 °F 12.2 °F 1015.8 in Calm   1.6 mph 94 % 0.0 in
10:50 13.1 °F 11.8 °F 1015.8 in NW 1.6 mph 6.4 mph 92 % 0.0 in
10:55 13.2 °F 11.9 °F 1015.8 in Calm   6.4 mph 92 % 0.0 in
11:00 13.3 °F 12.1 °F 1015.8 in Calm   4.8 mph 92 % 0.0 in
11:05 13.5 °F 12.4 °F 1015.8 in Calm     93 % 0.0 in
11:10 13.8 °F 12.6 °F 1015.8 in Calm   3.2 mph 92 % 0.0 in
11:15 13.9 °F 12.5 °F 1015.8 in Calm   3.2 mph 91 % 0.0 in
11:20 13.9 °F 12.1 °F 1015.8 in NNW 1.6 mph 6.4 mph 89 % 0.0 in
11:25 13.9 °F 12.1 °F 1015.8 in NW 3.2 mph 8.0 mph 89 % 0.0 in
11:30 14.0 °F 12.2 °F 1015.8 in NW 3.2 mph 9.7 mph 89 % 0.0 in
11:35 14.2 °F 12.4 °F 1015.8 in NW 4.8 mph 14.5 mph 89 % 0.0 in
11:40 14.5 °F 12.7 °F 1015.8 in NW 3.2 mph 14.5 mph 89 % 0.0 in
11:45 14.8 °F 12.8 °F 1015.8 in WNW 1.6 mph 11.3 mph 88 % 0.0 in
11:50 14.9 °F 12.6 °F 1015.8 in NW 1.6 mph 8.0 mph 86 % 0.0 in
11:55 14.9 °F 12.7 °F 1015.8 in Calm   8.0 mph 87 % 0.0 in
12:00 15.1 °F 12.6 °F 1015.8 in NW 1.6 mph 9.7 mph 85 % 0.0 in
12:05 15.3 °F 12.4 °F 1015.8 in NW 8.0 mph 16.1 mph 83 % 0.0 in
12:10 15.3 °F 12.2 °F 1015.8 in NW 8.0 mph 16.1 mph 82 % 0.0 in
12:15 14.9 °F 12.3 °F 1015.8 in NW 3.2 mph 16.1 mph 84 % 0.0 in
12:20 14.7 °F 12.6 °F 1015.8 in NW 1.6 mph 9.7 mph 87 % 0.0 in
12:25 14.7 °F 12.4 °F 1015.8 in NNW 1.6 mph 8.0 mph 86 % 0.0 in
12:30 14.7 °F 12.2 °F 1015.8 in NNW 1.6 mph 8.0 mph 85 % 0.0 in
12:35 14.9 °F 12.4 °F 1015.8 in NW 1.6 mph 6.4 mph 85 % 0.0 in
12:40 15.1 °F 12.6 °F 1015.8 in Calm   6.4 mph 85 % 0.0 in
12:45 15.1 °F 12.7 °F 1015.8 in Calm   6.4 mph 86 % 0.0 in
12:50 15.1 °F 12.7 °F 1015.8 in Calm   6.4 mph 86 % 0.0 in
12:55 15.1 °F 13.1 °F 1015.8 in Calm   1.6 mph 88 % 0.0 in
13:00 15.1 °F 12.7 °F 1015.8 in Calm   1.6 mph 86 % 0.0 in
13:05 15.0 °F 12.8 °F 1015.8 in Calm   1.6 mph 87 % 0.0 in
13:10 15.1 °F 12.9 °F 1015.8 in Calm   1.6 mph 87 % 0.0 in
13:15 15.2 °F 12.7 °F 1015.8 in Calm   1.6 mph 85 % 0.0 in
13:20 15.3 °F 13.0 °F 1015.8 in Calm   3.2 mph 86 % 0.0 in
13:25 15.6 °F 12.9 °F 1015.8 in Calm   3.2 mph 84 % 0.0 in
13:30 15.8 °F 12.7 °F 1015.8 in Calm     82 % 0.0 in
13:35 15.8 °F 12.4 °F 1015.8 in WNW 1.6 mph 8.0 mph 80 % 0.0 in
13:40 15.9 °F 11.9 °F 1015.8 in Calm   8.0 mph 77 % 0.0 in
13:45 16.1 °F 12.0 °F 1015.8 in Calm   6.4 mph 77 % 0.0 in
13:50 16.2 °F 12.2 °F 1015.8 in NW 1.6 mph 6.4 mph 77 % 0.0 in
13:55 16.3 °F 12.9 °F 1015.5 in Calm   4.8 mph 80 % 0.0 in
14:00 16.4 °F 12.4 °F 1015.8 in Calm   1.6 mph 77 % 0.0 in
14:05 16.5 °F 12.4 °F 1015.8 in Calm   6.4 mph 77 % 0.0 in
14:10 16.8 °F 12.3 °F 1015.5 in WNW 1.6 mph 6.4 mph 75 % 0.0 in
14:15 17.3 °F 11.6 °F 1015.5 in NNW 3.2 mph 11.3 mph 69 % 0.0 in
14:20 17.6 °F 12.4 °F 1015.5 in NW 1.6 mph 11.3 mph 72 % 0.0 in
14:25 17.6 °F 11.6 °F 1015.5 in Calm   6.4 mph 68 % 0.0 in
14:30 17.4 °F 11.9 °F 1015.5 in Calm   1.6 mph 70 % 0.0 in
14:35 17.5 °F 11.3 °F 1015.5 in Calm   4.8 mph 67 % 0.0 in
14:40 17.6 °F 10.7 °F 1015.5 in NW 4.8 mph 8.0 mph 64 % 0.0 in
14:45 17.5 °F 10.1 °F 1015.5 in WNW 1.6 mph 8.0 mph 62 % 0.0 in
14:50 17.6 °F 10.7 °F 1015.5 in NW 3.2 mph 9.7 mph 64 % 0.0 in
14:55 17.9 °F 10.7 °F 1015.5 in NW 1.6 mph 9.7 mph 63 % 0.0 in
15:00 18.2 °F 12.4 °F 1015.5 in NW 1.6 mph 9.7 mph 69 % 0.0 in
15:05 18.7 °F 12.9 °F 1015.5 in NW 3.2 mph 9.7 mph 69 % 0.0 in
15:10 19.0 °F 12.3 °F 1015.5 in NW 3.2 mph 11.3 mph 65 % 0.0 in
15:15 18.9 °F 12.4 °F 1015.5 in NNW 1.6 mph 11.3 mph 66 % 0.0 in
15:20 18.7 °F 12.4 °F 1015.5 in Calm   6.4 mph 67 % 0.0 in
15:25 18.7 °F 11.0 °F 1015.5 in WNW 1.6 mph 6.4 mph 61 % 0.0 in
15:30 18.8 °F 11.4 °F 1015.5 in WNW 1.6 mph 9.7 mph 62 % 0.0 in
15:35 19.1 °F 12.1 °F 1015.5 in NW 3.2 mph 9.7 mph 64 % 0.0 in
15:40 19.0 °F 12.7 °F 1015.5 in Calm   8.0 mph 67 % 0.0 in
15:45 18.6 °F 13.2 °F 1015.5 in Calm   4.8 mph 71 % 0.0 in
15:50 18.1 °F 12.8 °F 1015.8 in Calm   4.8 mph 71 % 0.0 in
15:55 17.7 °F 13.0 °F 1015.8 in Calm   1.6 mph 74 % 0.0 in
16:00 17.6 °F 12.9 °F 1015.5 in Calm   1.6 mph 74 % 0.0 in
16:05 17.8 °F 12.3 °F 1015.5 in Calm   4.8 mph 70 % 0.0 in
16:10 18.3 °F 13.6 °F 1015.5 in NNE 1.6 mph 4.8 mph 74 % 0.0 in
16:15 18.3 °F 13.4 °F 1015.8 in North 1.6 mph 6.4 mph 73 % 0.0 in
16:20 18.1 °F 13.3 °F 1015.8 in NW 1.6 mph 8.0 mph 74 % 0.0 in
16:25 17.8 °F 13.6 °F 1015.8 in NW 1.6 mph 8.0 mph 76 % 0.0 in
16:30 18.0 °F 13.3 °F 1015.8 in North 1.6 mph 8.0 mph 74 % 0.0 in
16:35 18.3 °F 12.9 °F 1015.8 in Calm   8.0 mph 71 % 0.0 in
16:40 18.3 °F 12.3 °F 1015.8 in Calm   4.8 mph 68 % 0.0 in
16:45 18.0 °F 13.1 °F 1015.8 in Calm   4.8 mph 73 % 0.0 in
16:50 17.7 °F 13.2 °F 1015.8 in Calm   3.2 mph 75 % 0.0 in
16:55 17.5 °F 12.8 °F 1015.8 in Calm   6.4 mph 74 % 0.0 in
17:00 17.6 °F 13.1 °F 1015.8 in Calm   6.4 mph 75 % 0.0 in
17:05 17.7 °F 12.8 °F 1015.8 in NW 1.6 mph 6.4 mph 73 % 0.0 in
17:10 17.8 °F 12.3 °F 1015.8 in NNW 1.6 mph 8.0 mph 70 % 0.0 in
17:15 17.9 °F 12.8 °F 1015.8 in North 1.6 mph 8.0 mph 72 % 0.0 in
17:20 18.0 °F 12.7 °F 1015.8 in North 3.2 mph 12.9 mph 71 % 0.0 in
17:25 18.1 °F 13.0 °F 1015.8 in Calm   12.9 mph 72 % 0.0 in
17:30 18.5 °F 13.3 °F 1015.8 in NNW 1.6 mph 6.4 mph 72 % 0.0 in
17:35 18.9 °F 13.5 °F 1015.8 in NNW 1.6 mph 6.4 mph 71 % 0.0 in
17:40 18.9 °F 13.1 °F 1015.8 in Calm   6.4 mph 69 % 0.0 in
17:45 18.6 °F 13.1 °F 1015.8 in Calm   3.2 mph 70 % 0.0 in
17:50 18.2 °F 12.8 °F 1015.8 in Calm   1.6 mph 71 % 0.0 in
17:55 17.8 °F 13.3 °F 1015.8 in Calm   1.6 mph 75 % 0.0 in
18:00 17.8 °F 13.1 °F 1015.8 in Calm   3.2 mph 74 % 0.0 in
18:05 18.0 °F 13.1 °F 1015.8 in Calm   3.2 mph 73 % 0.0 in
18:10 18.0 °F 13.1 °F 1015.8 in Calm   1.6 mph 73 % 0.0 in
18:15 17.9 °F 12.8 °F 1015.8 in Calm   1.6 mph 72 % 0.0 in
18:20 17.9 °F 13.0 °F 1016.1 in Calm   1.6 mph 73 % 0.0 in
18:25 17.9 °F 13.0 °F 1016.1 in Calm   3.2 mph 73 % 0.0 in
18:30 17.8 °F 13.1 °F 1016.1 in Calm   3.2 mph 74 % 0.0 in
18:35 17.8 °F 13.1 °F 1016.1 in Calm   1.6 mph 74 % 0.0 in
18:40 17.7 °F 13.0 °F 1016.1 in Calm   6.4 mph 74 % 0.0 in
18:45 17.7 °F 13.2 °F 1016.1 in Calm   8.0 mph 75 % 0.0 in
18:50 17.6 °F 13.3 °F 1016.1 in Calm   8.0 mph 76 % 0.0 in
18:55 17.4 °F 12.9 °F 1016.1 in Calm   3.2 mph 75 % 0.0 in
19:00 17.2 °F 12.9 °F 1016.1 in Calm   3.2 mph 76 % 0.0 in
19:05 17.1 °F 12.8 °F 1016.1 in Calm   1.6 mph 76 % 0.0 in
19:10 17.2 °F 12.7 °F 1016.1 in Calm   1.6 mph 75 % 0.0 in
19:15 17.2 °F 12.1 °F 1016.1 in Calm   1.6 mph 72 % 0.0 in
19:20 17.4 °F 12.3 °F 1016.1 in Calm   1.6 mph 72 % 0.0 in
19:25 17.6 °F 12.2 °F 1016.1 in Calm   1.6 mph 71 % 0.0 in
19:30 17.7 °F 12.1 °F 1016.1 in Calm   1.6 mph 70 % 0.0 in
19:35 17.6 °F 12.3 °F 1016.1 in Calm   1.6 mph 71 % 0.0 in
19:40 17.4 °F 12.3 °F 1016.1 in Calm     72 % 0.0 in
19:45 17.4 °F 12.6 °F 1016.1 in Calm   1.6 mph 73 % 0.0 in
19:50 17.6 °F 12.4 °F 1016.5 in Calm   1.6 mph 72 % 0.0 in
19:55 17.6 °F 12.5 °F 1016.5 in Calm     72 % 0.0 in
20:00 17.6 °F 12.4 °F 1016.1 in Calm   1.6 mph 72 % 0.0 in
20:05 17.4 °F 12.3 °F 1016.5 in Calm   1.6 mph 72 % 0.0 in
20:10 17.4 °F 12.3 °F 1016.5 in Calm   1.6 mph 72 % 0.0 in
20:15 17.3 °F 12.2 °F 1016.5 in Calm   1.6 mph 72 % 0.0 in
20:20 17.2 °F 12.3 °F 1016.5 in Calm   1.6 mph 73 % 0.0 in
20:25 16.9 °F 12.0 °F 1016.5 in Calm   1.6 mph 73 % 0.0 in
20:30 16.6 °F 12.2 °F 1016.5 in Calm   1.6 mph 75 % 0.0 in
20:35 16.3 °F 12.1 °F 1016.5 in Calm     76 % 0.0 in
20:40 16.1 °F 11.9 °F 1016.5 in Calm     76 % 0.0 in
20:45 15.9 °F 11.8 °F 1016.5 in Calm     77 % 0.0 in
20:50 15.7 °F 11.9 °F 1016.5 in Calm     78 % 0.0 in
20:55 15.5 °F 11.9 °F 1016.8 in Calm     79 % 0.0 in
21:00 15.3 °F 11.8 °F 1016.8 in Calm   1.6 mph 80 % 0.0 in
21:05 15.1 °F 11.7 °F 1016.8 in Calm   1.6 mph 80 % 0.0 in
21:10 14.9 °F 11.5 °F 1016.8 in Calm   1.6 mph 80 % 0.0 in
21:15 14.8 °F 11.4 °F 1016.8 in Calm     80 % 0.0 in
21:20 14.7 °F 11.3 °F 1016.8 in Calm     80 % 0.0 in
21:25 14.6 °F 11.4 °F 1016.8 in Calm     81 % 0.0 in
21:30 14.5 °F 11.3 °F 1016.8 in Calm     81 % 0.0 in
21:35 14.4 °F 11.2 °F 1016.8 in Calm     81 % 0.0 in
21:40 14.3 °F 11.1 °F 1016.8 in Calm     81 % 0.0 in
21:45 14.3 °F 11.1 °F 1016.8 in Calm     81 % 0.0 in
21:50 14.4 °F 11.2 °F 1016.8 in Calm     81 % 0.0 in
21:55 14.4 °F 11.6 °F 1016.8 in Calm     83 % 0.0 in
22:00 14.3 °F 11.5 °F 1017.2 in Calm     83 % 0.0 in
22:05 14.2 °F 11.4 °F 1017.2 in Calm     83 % 0.0 in
22:10 14.1 °F 11.4 °F 1017.2 in Calm     84 % 0.0 in
22:15 13.9 °F 11.4 °F 1017.2 in Calm     85 % 0.0 in
22:20 13.8 °F 11.6 °F 1017.2 in Calm     86 % 0.0 in
22:25 13.8 °F 11.7 °F 1017.2 in Calm     87 % 0.0 in
22:30 13.6 °F 11.7 °F 1017.5 in Calm     88 % 0.0 in
22:35 13.5 °F 11.6 °F 1017.5 in Calm     88 % 0.0 in
22:40 13.3 °F 11.6 °F 1017.5 in Calm     89 % 0.0 in
22:45 13.2 °F 11.4 °F 1017.5 in Calm     89 % 0.0 in
22:50 13.0 °F 11.2 °F 1017.5 in Calm     89 % 0.0 in
22:55 12.8 °F 11.2 °F 1017.5 in Calm     90 % 0.0 in
23:00 12.7 °F 11.1 °F 1017.5 in Calm     90 % 0.0 in
23:05 12.5 °F 10.9 °F 1017.5 in Calm     90 % 0.0 in
23:10 12.4 °F 10.9 °F 1017.5 in Calm     91 % 0.0 in
23:15 12.3 °F 10.8 °F 1017.5 in Calm     91 % 0.0 in
23:20 12.1 °F 10.7 °F 1017.5 in Calm     91 % 0.0 in
23:25 12.0 °F 10.6 °F 1017.5 in Calm     91 % 0.0 in
23:30 11.8 °F 10.4 °F 1017.5 in Calm     91 % 0.0 in
23:35 11.7 °F 10.4 °F 1017.5 in Calm     92 % 0.0 in
23:40 11.6 °F 10.3 °F 1017.5 in Calm     92 % 0.0 in
23:45 11.5 °F 10.2 °F 1017.5 in Calm     92 % 0.0 in
23:50 11.4 °F 10.1 °F 1017.5 in Calm     92 % 0.0 in
23:55 11.3 °F 10.0 °F 1017.5 in Calm     92 % 0.0 in
Esan sääasema
Terveisin Weather Underground - 3.75 mb

Alkuperäinen skripti  Jim McMurry - jmcmurry@mwt.net Sovitettu myös templatelle  Wim van der Kuil - Leuven-Template.eu

Laitteet joita käytämme:

Sääasema
Davis VP2

Sääasemaohjelma
Cumulus

Sääaseman tietokone
Asus EeePC

Palveluntarjoaja
Suncomet

Davis VP2

Cumulus

Asus EeePC

Suncomet